{"data":{"norad_id":66164,"epoch":"2026-05-25T02:03:35.774208Z","epoch_age_seconds":67938,"freshness":"FRESH","line1":"1 66164U 25240U   26145.08583072  .00029727  00000+0  88730-3 0  9992","line2":"2 66164  53.1588  67.3392 0001014  78.2830 281.8286 15.34405647 33694","mean_motion":15.34405647,"eccentricity":0.0001014,"inclination_deg":53.1588,"raan_deg":67.3392,"arg_perigee_deg":78.283,"mean_anomaly_deg":281.8286,"bstar":0.0008873,"rev_number":3369,"period_min":93.847412697902,"perigee_km":461.99279668607,"apogee_km":463.38011568298,"semimajor_km":6840.8234561845,"source":"CELESTRAK","updated_at":"2026-05-25T13:38:21.072701Z"}}